Theta_e
319 320 320 320 320 320 319 320 320 320 320 320 320 320 320 320 321 321 322 322 321 321 322 323 325 327 328 330 336 343 358 354 347 352 348 342 339 336 328 331 332 328 328 329 331 331 331
319 319 319 319 319 319 319 319 319 319 319 319 319 319 320 320 320 321 321 321 320 320 322 324 325 326 329 322 346 348 348 347 352 350 345 343 338 340 336 331 329 330 330 329 330 331 331
318 318 319 319 319 319 319 318 319 319 319 319 319 319 319 319 319 320 320 320 319 321 324 325 326 329 324 326 345 351 350 349 351 347 340 343 343 341 338 331 334 332 327 329 329 331 330
318 318 319 318 319 319 319 318 319 319 319 318 318 319 319 319 319 318 318 318 318 323 328 325 328 329 324 334 346 345 349 348 349 347 344 346 348 342 339 337 330 327 325 318 327 329 331
318 318 319 319 319 319 319 319 319 319 318 318 317 317 317 317 317 317 317 317 319 329 327 327 328 325 322 340 336 344 348 343 346 346 347 347 344 339 334 322 317 321 315 316 322 328 329
318 319 319 319 320 319 319 319 319 318 317 317 316 316 317 316 316 315 315 316 322 324 329 330 327 319 324 327 336 341 345 345 341 341 339 340 337 330 323 322 311 316 315 316 317 323 326
319 319 318 319 319 319 319 319 318 318 318 317 316 316 316 316 316 314 317 326 323 321 323 317 318 322 321 330 339 337 341 338 340 335 327 332 326 318 321 322 321 320 318 315 319 323 322
318 318 319 319 319 319 318 318 318 318 318 317 316 316 315 315 315 314 317 324 321 321 315 320 318 318 321 325 320 330 341 332 331 325 328 325 320 324 324 322 320 319 317 316 319 322 321
319 319 319 319 318 318 318 318 317 317 316 316 316 316 315 314 314 317 326 322 326 326 315 316 318 317 318 321 318 323 335 332 326 324 323 320 322 325 322 320 318 318 315 316 316 320 322
319 319 318 318 318 318 317 317 317 316 316 316 316 315 314 313 312 327 323 325 328 326 312 312 314 317 319 318 314 323 330 327 325 321 322 321 326 322 320 318 319 314 320 318 317 316 311
319 318 318 318 318 317 317 317 316 315 315 315 315 314 313 307 325 323 323 327 327 323 301 312 314 322 319 316 316 316 324 324 319 320 321 318 320 320 318 318 320 316 321 318 318 316 316
319 319 318 318 317 317 316 316 315 314 314 314 314 312 312 318 326 323 327 327 322 308 300 309 314 313 314 316 316 317 317 320 322 318 319 318 323 321 320 322 320 320 318 318 318 316 308
319 318 318 318 317 316 316 315 315 313 313 313 311 311 313 324 323 327 327 322 309 303 310 308 310 313 312 312 313 314 314 314 311 308 310 314 316 320 321 317 320 318 315 308 306 306 305
318 318 318 317 317 316 316 315 314 313 312 311 309 310 319 326 328 327 323 314 303 306 307 312 311 312 310 312 313 313 311 310 316 313 309 307 307 315 319 317 315 315 314 308 303 304 306
318 318 318 317 317 316 316 315 313 312 311 310 308 327 328 326 327 326 316 306 308 308 309 308 310 307 309 311 311 312 312 311 315 315 309 309 308 317 319 320 319 314 311 316 311 312 308
318 318 318 317 317 316 316 315 313 312 311 309 328 327 324 326 327 320 312 304 309 311 311 310 305 308 306 309 308 311 311 314 312 314 316 312 307 315 316 319 318 315 316 308 311 303 302
318 318 318 317 317 317 316 315 313 311 310 310 326 322 324 327 326 318 308 311 310 313 313 309 308 308 308 308 309 308 309 313 314 314 316 313 310 310 314 312 311 311 310 310 310 309 304
318 318 318 317 317 316 316 315 312 310 308 318 326 318 322 324 317 318 313 311 303 311 314 313 312 311 309 310 308 308 308 310 314 314 310 315 312 307 309 315 317 314 312 313 304 304 308
318 318 318 317 317 317 316 314 312 310 309 315 317 317 323 322 312 313 313 311 311 311 312 311 310 312 313 310 307 311 310 314 314 313 312 314 310 304 306 310 313 311 312 312 311 310 306
319 318 317 318 317 317 316 314 312 310 309 317 317 312 315 318 314 309 308 308 306 310 308 310 310 312 309 308 311 309 310 313 314 313 320 315 308 304 301 305 310 308 311 312 311 306 307
319 319 319 318 317 317 316 314 312 310 309 318 315 310 310 308 309 308 308 307 305 305 310 310 308 309 307 305 307 306 309 311 313 318 313 312 305 308 308 309 309 308 309 310 309 310 307
319 319 319 319 318 316 316 315 313 310 308 319 313 309 312 312 309 307 300 307 304 304 304 304 303 306 307 304 305 303 306 308 307 311 310 312 306 308 305 308 308 306 308 309 310 310 310
319 319 319 319 318 317 316 315 314 311 311 317 317 318 313 304 308 306 305 304 302 304 305 305 304 303 302 303 306 307 307 308 307 306 305 306 305 303 300 306 306 302 307 308 309 311 310
319 319 319 318 318 317 317 316 315 312 310 319 317 315 311 307 308 307 304 304 303 305 302 304 305 303 306 311 309 309 308 306 306 305 306 302 302 302 299 302 294 306 312 312 309 311 312
317 316 316 315 316 316 316 316 315 313 311 318 319 315 312 306 309 308 305 305 307 307 305 305 306 308 310 307 303 303 304 305 305 307 306 306 303 299 297 297 302 304 308 308 307 307 313
315 314 313 313 314 315 316 316 315 314 312 317 320 318 315 308 309 309 306 307 304 305 304 305 309 311 309 304 303 298 297 301 300 302 309 309 307 300 299 295 294 304 310 313 312 303 313
313 312 312 312 312 314 316 316 316 314 313 313 319 319 314 309 313 313 308 306 308 306 303 305 306 306 309 303 300 299 299 304 298 299 302 303 304 301 300 297 300 307 310 312 302 305 317
311 311 311 311 312 313 315 315 316 314 313 313 319 320 313 310 312 315 313 309 308 306 302 306 304 306 305 301 302 302 301 303 302 305 303 302 300 300 302 299 297 312 310 304 310 317 320
310 310 311 312 312 313 314 315 316 315 313 312 315 321 319 310 311 316 315 316 313 310 307 306 304 306 307 303 305 305 302 305 304 298 308 300 305 302 303 303 313 314 313 317 318 315 318
Wind_Speed
19 20 19 19 19 20 20 20 18 18 19 19 19 19 19 18 18 18 19 17 16 17 16 14 11 8 8 11 11 12 11 11 15 16 13 8 13 14 8 2 5 3 4 2 3 3 5
19 20 20 20 20 20 20 20 20 20 19 19 20 18 18 18 19 18 18 19 18 16 15 11 10 6 9 10 7 15 15 17 14 14 10 9 8 10 10 4 8 3 5 6 5 7 5
19 19 20 21 21 21 21 21 20 20 20 20 19 19 18 18 19 19 18 19 20 17 13 10 8 7 12 4 5 13 14 15 13 12 10 4 10 13 11 11 1 7 13 14 10 8 5
19 20 21 21 21 20 21 22 22 21 20 20 20 20 20 19 18 18 20 19 19 17 8 8 8 10 8 3 4 12 14 13 9 9 10 7 11 16 18 11 25 15 30 10 12 5 8
20 20 21 21 21 22 22 22 22 21 21 20 21 20 20 20 19 17 18 21 17 12 4 7 9 10 6 4 10 12 12 11 10 10 9 9 14 19 18 28 10 2 3 7 12 8 5
22 21 21 22 23 23 23 23 24 24 24 22 20 20 20 19 19 17 19 14 6 8 8 9 10 9 10 6 10 11 12 10 9 10 13 15 16 20 16 14 4 10 9 6 9 8 7
21 22 23 23 23 23 23 23 23 23 22 23 21 19 19 18 16 15 16 6 8 9 14 13 1 12 5 5 6 9 12 11 13 11 17 16 13 8 28 8 8 12 11 8 7 4 5
22 23 23 23 24 24 24 24 24 23 23 22 20 17 17 15 15 13 9 7 9 7 9 13 10 10 4 2 6 10 12 13 16 17 19 17 15 14 7 10 11 13 14 10 7 12 10
22 22 22 24 24 25 26 25 25 24 22 20 18 15 13 13 13 9 8 7 6 6 9 11 8 10 10 14 16 13 16 17 19 16 20 20 20 4 5 12 14 16 4 9 13 16 17
22 22 23 24 25 26 27 26 26 25 23 20 16 13 11 9 5 3 3 3 7 4 8 14 12 7 9 8 19 20 17 18 19 21 21 19 19 13 10 16 15 19 11 10 14 15 14
23 24 24 25 26 26 27 27 27 26 24 21 18 12 8 7 12 4 7 8 8 7 9 5 10 7 4 10 7 14 16 18 22 22 18 20 21 15 17 16 14 14 15 13 18 17 21
24 25 26 26 27 28 27 28 28 28 25 22 18 11 5 6 7 5 7 8 7 9 2 8 4 6 14 13 13 5 9 15 18 21 24 26 24 21 11 15 14 13 15 19 21 19 17
24 25 26 27 27 28 28 29 29 28 26 21 17 10 7 8 5 7 7 8 10 9 2 5 1 4 4 2 8 10 13 15 15 18 21 23 27 25 19 20 20 19 18 14 16 8 9
24 25 26 27 28 29 29 29 30 29 26 21 15 9 10 5 5 8 8 11 10 8 4 4 5 9 13 4 8 8 11 13 16 18 18 16 17 25 23 22 17 19 19 15 16 16 6
24 25 27 28 30 31 31 30 32 31 28 22 11 8 4 6 4 6 9 11 6 8 6 9 12 12 13 8 7 6 9 15 10 10 14 17 18 20 9 10 17 16 20 19 22 21 19
24 25 27 28 29 31 33 32 32 34 31 21 6 6 7 7 4 7 9 8 5 6 9 10 13 2 13 7 5 14 6 6 7 2 10 15 18 17 12 10 13 17 15 16 11 20 20
23 25 26 28 30 31 32 34 33 34 38 13 8 6 8 8 5 9 8 7 2 3 8 8 12 11 13 12 10 13 13 5 1 10 10 14 18 18 18 8 16 17 17 17 20 17 15
22 24 25 27 29 31 34 35 35 33 39 7 8 4 7 8 9 2 4 5 3 7 3 8 8 11 12 12 13 14 15 7 6 11 13 15 11 16 21 15 14 12 18 16 13 21 15
21 22 24 25 27 29 32 35 37 36 23 11 7 4 6 11 5 3 4 4 3 8 7 8 9 5 14 12 14 12 8 9 7 12 11 15 9 14 19 18 20 14 16 18 20 19 18
20 20 23 23 25 27 29 32 35 36 31 9 6 3 4 4 6 9 6 1 6 4 9 6 12 11 13 13 15 13 14 8 4 9 6 7 15 21 18 23 24 18 15 12 17 14 15
19 18 18 20 24 24 26 29 33 37 37 9 6 5 5 6 6 9 7 5 8 6 5 10 7 5 7 9 15 17 16 14 11 1 10 14 21 21 23 24 25 26 22 22 22 19 21
17 17 17 18 19 22 23 25 29 35 40 8 7 6 7 6 6 7 6 6 8 7 8 11 10 11 12 14 14 19 20 18 17 17 19 17 19 20 25 22 26 28 26 26 27 26 26
16 16 17 16 16 18 19 22 24 28 28 6 8 5 7 2 8 7 7 7 10 9 6 3 8 11 14 15 15 18 19 21 21 21 20 20 17 18 23 22 22 28 25 28 26 28 25
15 15 17 17 16 16 16 17 19 22 21 10 6 7 7 7 7 8 8 9 11 11 12 14 13 14 9 14 16 20 23 23 23 23 21 23 22 17 20 21 28 23 22 24 26 24 25
15 17 17 18 17 15 15 15 15 16 20 10 6 6 6 8 11 8 7 13 13 12 14 13 9 7 10 13 13 11 13 19 22 22 19 20 19 18 19 19 24 25 20 21 24 27 23
14 16 17 17 17 16 14 13 12 11 16 11 4 6 6 7 8 7 12 11 9 10 13 3 2 8 10 10 10 11 12 14 9 7 10 12 17 16 16 21 26 22 22 23 24 24 20
14 15 16 16 16 16 14 12 11 11 11 10 4 7 6 9 8 7 9 9 12 10 8 11 6 8 8 8 11 12 14 14 14 15 12 11 10 15 16 20 25 24 27 26 19 13 10
14 15 16 15 15 15 14 12 10 10 9 9 6 3 6 7 15 14 9 12 10 9 8 8 9 9 8 9 9 10 10 10 12 15 16 15 15 15 17 23 31 13 14 22 20 3 8
16 15 16 15 14 14 13 11 9 7 7 9 6 3 4 7 11 18 18 18 18 16 12 8 11 10 6 7 7 8 12 14 19 18 18 18 18 16 21 20 26 24 19 17 15 5 0
Wind_Direction
5 3 0 358 355 352 350 348 346 343 340 338 336 334 333 331 329 325 321 319 317 312 307 300 296 295 260 230 76 127 145 169 192 225 215 245 280 334 24 18 211 261 59 257 208 189 231
2 360 358 355 353 350 347 344 342 340 338 335 332 331 330 328 325 324 319 315 315 308 297 286 280 287 251 260 88 143 165 170 210 219 237 257 341 335 284 308 296 30 249 248 189 192 203
3 359 357 353 351 347 344 341 338 336 334 333 330 326 325 325 323 320 318 313 314 305 290 267 247 251 263 14 125 162 171 195 224 237 272 262 300 295 326 277 144 246 224 178 171 172 182
1 359 355 353 348 343 339 337 335 332 331 329 327 325 322 322 320 318 314 311 310 304 280 236 219 244 285 101 184 178 191 212 234 242 268 302 282 282 260 286 343 93 293 146 104 158 144
1 357 355 350 345 340 336 333 332 330 329 328 327 323 320 317 315 315 309 308 296 301 253 178 216 236 250 144 204 193 198 217 216 235 247 282 272 262 277 92 265 66 26 59 133 137 152
0 356 353 348 342 338 336 334 332 331 330 328 323 319 315 312 310 313 306 285 309 271 224 217 269 255 188 214 162 181 203 242 227 237 246 236 242 253 360 283 71 8 350 42 49 106 194
359 355 352 345 340 337 335 334 331 326 322 323 320 314 310 306 306 312 311 192 208 198 215 247 221 230 132 74 181 201 198 214 234 244 264 218 277 265 228 13 347 302 305 323 65 120 292
358 354 349 343 341 338 337 335 331 327 325 323 321 311 306 300 301 305 274 257 37 352 285 209 254 263 270 198 223 204 186 210 210 250 243 239 242 271 30 310 306 289 273 9 332 333 273
356 351 347 344 343 340 338 336 333 332 330 326 319 309 300 299 309 272 257 45 337 309 254 157 213 240 225 207 239 237 191 222 259 244 262 271 269 251 269 290 281 279 339 332 328 315 293
354 350 349 347 345 343 341 339 338 338 336 333 327 313 297 303 282 143 139 343 312 297 264 140 188 151 195 229 252 238 189 237 236 251 257 269 276 281 317 282 282 279 24 329 301 303 306
355 352 351 348 347 345 343 343 342 342 342 340 337 321 288 250 322 221 15 318 318 243 249 134 127 103 189 242 12 198 233 211 249 257 244 252 260 257 238 268 313 309 314 296 290 282 276
355 353 352 351 349 347 346 346 345 346 345 343 341 328 295 204 232 9 308 303 249 231 238 142 159 200 217 204 232 187 222 231 252 249 253 268 275 268 267 274 287 295 287 276 264 257 262
356 354 353 351 350 348 348 349 348 346 344 341 334 324 265 293 356 331 294 249 233 266 117 121 246 262 265 186 216 225 221 209 226 223 243 250 247 253 244 250 254 247 258 271 264 257 290
357 355 353 352 351 350 349 349 348 346 343 337 322 302 205 274 300 296 263 247 268 50 337 56 269 286 265 35 210 252 252 253 213 250 276 278 237 227 230 227 254 264 265 265 290 282 189
357 355 355 354 351 350 349 350 349 346 344 336 313 215 255 8 4 277 259 243 5 25 6 325 291 250 262 184 274 276 232 284 17 352 312 298 266 261 267 242 235 243 240 261 276 283 285
357 356 354 354 352 350 349 350 351 345 342 337 273 269 52 353 306 252 248 287 26 347 323 296 290 345 301 329 318 287 280 68 305 330 314 295 297 291 287 230 246 271 281 278 232 254 269
356 356 355 354 352 351 350 349 352 348 339 340 251 244 47 337 254 236 270 54 360 43 334 324 328 308 297 306 294 291 294 115 56 304 301 292 289 284 284 233 257 261 221 236 276 278 268
355 355 355 355 353 352 350 350 349 354 342 327 286 274 23 313 256 297 351 11 19 314 264 292 281 291 294 313 295 287 282 283 81 328 297 300 315 288 282 267 238 288 292 283 217 241 258
353 354 355 355 354 353 352 349 347 348 11 312 318 352 42 303 304 40 97 248 281 321 332 322 303 310 322 299 302 293 289 45 7 314 343 342 259 264 258 248 256 232 246 257 266 278 271
351 353 356 355 354 354 353 351 346 342 341 313 300 312 51 68 13 332 358 328 294 135 296 317 298 301 285 284 284 270 271 288 142 277 60 313 276 270 275 288 300 308 297 278 280 265 253
347 348 350 353 354 354 354 353 348 341 336 302 353 55 11 358 19 339 331 342 312 322 358 302 290 238 326 304 307 298 292 301 292 88 263 255 268 275 280 284 281 281 278 277 276 273 275
342 343 345 349 352 355 356 355 351 345 336 34 4 344 343 280 271 305 136 62 307 357 325 305 311 328 317 294 302 303 305 288 280 287 279 273 272 276 272 272 278 275 268 267 260 257 264
338 340 341 345 350 354 356 355 354 352 341 13 1 345 281 204 326 317 25 338 324 322 321 320 319 305 296 305 322 304 293 286 281 282 276 280 279 279 272 277 274 261 250 257 261 260 258
333 339 341 344 346 349 355 355 356 351 358 327 14 297 305 319 317 352 317 310 303 310 296 302 298 286 301 319 297 272 257 256 261 262 258 259 259 261 267 271 254 265 264 272 276 261 253
344 343 342 339 339 343 346 352 356 351 346 321 3 337 329 305 322 269 311 317 303 279 254 272 299 301 312 291 289 289 296 245 227 234 240 243 253 259 260 258 264 268 260 255 257 260 263
339 339 341 340 338 336 336 342 348 352 343 314 25 324 304 303 68 340 309 288 292 304 297 270 183 273 300 285 276 277 276 319 287 297 220 246 231 242 254 263 264 268 266 257 269 263 270
336 336 338 339 337 332 331 332 336 342 343 321 314 346 290 290 264 348 294 332 310 287 282 290 355 295 256 269 267 272 281 298 279 267 291 287 268 254 248 249 256 266 281 289 258 294 311
332 335 335 335 331 331 332 323 322 330 336 319 323 25 324 297 292 284 281 284 278 232 274 334 303 185 266 254 275 290 292 296 297 282 278 278 278 276 277 264 266 256 276 263 267 264 324
327 329 327 323 326 328 328 318 306 307 316 325 288 353 316 266 298 312 283 269 261 272 292 287 285 313 318 299 301 314 299 300 289 279 278 273 279 285 282 286 299 306 314 296 320 308 163